Wind_Speed
11 11 12 13 14 13 14 16 17 15 15 14 13 13 12 12 12 12 12 11 11 11 11 11 12 12 12 12 12 12 11 11 11 11 10 10 10 9 9 9 9 8 7 7 7 6 6 6 6
10 10 11 12 13 13 14 16 17 16 14 13 13 12 12 12 12 12 11 10 10 10 10 11 11 11 11 11 11 11 10 10 10 10 10 10 10 9 9 8 8 7 7 7 6 6 6 6 6
8 8 9 10 12 13 14 15 16 15 14 13 12 12 12 12 12 11 10 10 9 9 9 10 10 10 10 10 10 10 10 10 10 10 9 9 9 9 9 8 7 7 7 6 6 6 6 6 6
7 7 8 9 11 13 14 15 15 15 14 12 11 12 11 11 10 10 9 9 8 8 9 9 9 9 9 9 9 9 9 9 9 9 9 9 9 9 8 8 8 7 6 6 6 6 6 6 6
6 7 8 8 9 11 13 14 14 14 14 12 11 11 11 10 9 9 9 8 7 8 8 9 9 9 9 8 8 9 9 9 9 9 9 9 8 8 8 8 8 7 6 6 6 6 6 5 5
5 6 7 8 8 10 11 13 14 14 13 12 11 11 11 9 9 8 8 8 7 8 8 8 9 9 8 8 8 8 8 8 8 8 8 8 8 8 8 8 8 8 7 6 6 5 5 4 4
4 5 6 7 8 9 11 12 13 12 12 11 11 10 10 9 8 7 8 7 7 8 7 8 8 8 8 8 8 7 7 7 7 7 7 8 8 7 8 8 7 7 7 6 6 5 5 4 4
2 3 5 7 8 9 10 12 12 12 11 10 10 9 9 8 7 7 7 7 6 7 7 7 7 7 8 7 7 6 6 5 5 6 6 7 7 7 7 7 7 7 6 6 6 5 5 5 4
1 3 4 5 7 8 8 10 11 10 10 9 9 9 8 7 6 6 6 6 6 6 6 6 6 7 7 6 6 5 5 5 5 5 5 6 6 5 6 6 6 6 6 6 5 5 5 4 4
1 1 3 4 6 7 7 9 9 9 9 9 8 8 8 7 6 5 5 6 6 6 6 6 5 6 6 5 5 5 4 4 4 4 4 5 5 4 4 5 5 5 5 5 5 5 5 5 4
3 1 2 3 4 5 6 7 8 9 9 8 8 7 7 7 6 5 5 5 5 5 5 5 4 4 4 4 4 4 4 4 4 3 4 4 4 4 4 4 4 4 4 4 5 5 5 5 4
5 3 2 2 3 4 5 7 8 8 8 8 7 7 7 6 5 4 4 4 4 4 4 4 4 4 3 3 4 4 4 4 3 2 3 3 4 4 5 5 4 4 4 4 4 4 5 4 4
5 4 3 2 2 3 4 5 7 7 7 7 7 6 7 6 5 5 4 4 4 4 4 4 4 4 4 4 4 4 4 4 3 2 2 3 3 4 4 4 4 4 4 4 5 4 4 5 5
5 5 4 3 2 1 2 4 5 6 7 6 6 6 6 6 4 5 5 4 4 4 4 4 4 4 4 4 4 4 4 4 3 3 3 3 3 4 5 5 5 5 5 5 5 5 5 5 5
7 6 6 5 4 2 1 2 3 5 5 5 6 6 5 5 5 4 4 4 4 4 3 3 4 4 4 4 4 4 4 3 3 3 3 3 3 4 5 5 5 5 5 5 5 5 5 5 5
9 8 8 7 6 4 2 1 1 3 4 4 5 5 5 5 4 4 5 4 4 4 4 3 3 3 3 3 3 3 4 4 4 4 4 4 4 4 5 5 6 6 6 6 6 6 6 5 5
11 10 10 8 7 6 4 3 1 1 2 3 4 5 5 5 4 4 5 4 3 3 3 3 3 3 3 3 3 3 4 4 4 4 4 4 5 5 6 6 6 6 6 6 6 6 6 6 5
12 11 11 10 8 7 6 4 2 2 3 3 3 4 4 5 5 5 5 5 4 3 2 2 3 3 4 4 3 3 4 4 4 5 5 5 5 5 5 6 6 7 6 6 6 6 6 6 5
15 14 13 11 10 8 7 6 4 3 3 4 4 4 4 4 4 5 6 6 5 4 4 4 4 5 5 4 3 4 4 4 5 5 5 5 5 5 6 6 7 7 6 6 7 7 7 6 5
18 16 14 13 12 11 9 7 6 5 4 4 4 4 4 3 3 5 5 5 6 5 6 5 5 6 7 5 4 4 4 5 6 5 5 6 6 6 6 7 7 7 6 7 7 7 6 6 5
19 17 16 15 13 13 11 9 7 6 5 4 5 5 5 5 4 4 5 6 5 5 5 6 7 7 7 6 4 4 4 5 6 7 7 7 7 8 8 8 8 8 8 8 7 6 6 6 6
20 18 18 17 16 14 12 10 8 7 6 6 6 6 6 6 5 5 6 6 6 6 6 7 7 6 6 5 5 5 5 6 7 7 8 9 9 9 9 9 9 9 8 8 7 7 7 7 6
22 21 19 18 18 16 15 13 9 8 7 6 7 7 7 7 7 7 7 7 7 6 6 7 6 5 5 5 6 6 6 7 8 8 9 10 10 10 9 10 10 9 9 8 8 8 8 8 8
23 23 22 20 19 18 16 14 11 9 8 7 7 8 8 9 9 8 7 7 7 7 6 7 7 6 6 6 7 7 7 7 8 9 10 10 10 10 10 9 9 9 9 8 8 8 8 8 8
25 24 23 23 22 20 17 16 12 10 10 9 9 8 9 9 9 8 8 8 8 7 8 8 7 7 7 7 7 7 7 8 8 9 9 10 10 10 10 9 9 9 9 9 8 8 8 9 9
25 25 24 24 23 21 19 18 14 13 12 11 11 10 9 8 7 8 8 9 9 9 9 9 8 8 8 9 10 9 9 9 9 9 9 9 10 10 11 10 10 10 10 9 8 9 10 10 10
27 26 25 25 24 23 21 18 15 14 14 14 12 11 10 9 9 9 10 10 10 11 10 10 10 9 9 10 10 10 10 11 11 10 10 10 10 11 11 11 11 10 10 9 10 10 10 10 11
27 26 27 26 25 24 21 19 16 15 14 15 13 12 10 9 10 11 12 12 11 11 11 11 10 10 10 10 11 11 11 12 12 11 11 11 12 12 12 11 11 11 10 10 10 10 11 11 12
27 27 27 27 27 25 23 21 17 16 15 15 14 13 11 11 11 11 11 12 12 12 12 12 12 12 11 11 11 12 12 12 12 11 12 12 12 12 13 12 12 12 11 11 11 11 12 12 13
28 27 27 27 27 26 25 22 19 18 17 17 16 15 13 12 12 11 13 12 12 11 12 13 13 13 12 12 11 12 12 12 12 12 13 13 13 13 13 12 13 13 13 13 13 13 13 13 14
Wind_Direction
73 74 73 70 64 62 66 69 71 67 64 63 66 69 75 80 80 80 84 88 90 91 92 89 89 87 85 82 79 76 76 75 73 71 69 70 69 68 69 68 69 70 69 68 67 63 64 67 68
68 71 72 70 65 62 65 67 68 65 61 61 64 69 74 79 81 84 87 91 93 93 92 88 88 87 84 82 79 76 76 73 70 69 67 66 65 62 65 65 65 66 65 63 62 63 65 67 70
66 66 68 68 66 66 67 67 66 64 60 59 68 68 73 75 78 85 88 91 95 95 91 87 87 87 84 82 80 77 74 70 67 64 62 62 62 61 60 60 62 65 64 61 61 67 70 72 75
64 64 67 68 70 67 67 67 65 62 60 60 68 70 76 75 77 83 87 89 93 95 90 87 85 87 86 83 79 76 73 70 66 63 62 61 61 62 60 59 65 69 68 66 71 71 73 79 76
73 72 67 66 68 69 68 67 64 61 58 58 66 71 73 76 80 81 84 85 89 92 90 87 84 84 83 82 79 77 74 69 64 61 60 60 59 56 59 65 60 64 69 67 68 69 71 74 71
74 70 62 61 65 68 68 66 65 63 56 58 63 69 71 74 79 83 84 87 89 90 87 87 86 82 81 80 78 77 74 68 64 60 59 57 57 54 59 65 63 63 64 63 61 61 61 64 61
70 65 64 65 62 67 69 63 61 61 59 57 60 70 73 71 77 89 90 91 91 87 83 88 86 83 80 78 78 77 73 67 62 58 57 56 52 49 52 57 59 55 55 51 48 47 49 51 51
62 63 65 62 59 62 66 63 59 58 59 57 58 65 74 71 71 83 92 92 92 88 86 87 85 81 78 77 78 77 70 65 62 56 55 51 48 44 42 47 44 44 48 45 41 41 42 41 49
91 74 65 64 59 56 57 58 58 58 56 56 60 64 66 64 64 76 83 92 94 90 91 86 86 81 79 78 81 79 70 64 58 55 52 49 42 39 42 40 37 37 40 42 38 34 30 31 42
191 94 64 74 69 59 51 50 53 57 56 52 57 61 60 63 62 72 79 82 88 92 93 93 89 81 77 74 72 69 63 57 54 54 45 40 34 32 33 31 29 30 31 36 31 22 22 20 20
216 169 92 90 72 59 46 42 47 52 52 47 47 54 53 57 56 68 77 76 81 86 89 87 86 80 72 66 64 60 57 51 50 52 38 27 20 20 17 22 19 19 16 20 18 15 17 12 13
220 207 154 110 79 61 47 39 39 42 45 42 42 50 47 48 54 53 70 74 79 83 86 84 76 65 53 55 63 57 54 48 40 45 38 26 21 26 24 18 13 8 3 3 8 7 6 2 5
226 222 197 159 106 71 49 34 31 31 37 36 35 42 44 40 41 45 63 78 80 75 74 74 63 51 45 50 56 53 49 38 29 19 19 13 15 16 10 4 357 351 348 353 358 357 354 354 355
236 229 218 204 181 123 52 36 31 31 33 36 36 35 37 35 33 39 51 61 67 68 68 63 55 46 42 42 44 38 32 24 15 7 2 359 349 352 355 350 342 338 341 345 348 347 345 343 345
235 230 219 212 200 180 106 47 31 27 27 36 36 36 35 32 35 34 37 44 52 50 50 51 49 40 33 28 31 24 10 6 360 355 354 345 333 336 336 339 330 329 334 332 330 330 330 329 328
226 221 221 217 214 202 180 120 33 17 23 26 32 35 31 24 28 32 27 26 31 34 34 36 37 28 19 18 22 10 0 346 337 343 343 332 326 324 323 323 327 327 326 326 328 328 323 319 319
222 218 222 224 220 212 200 196 222 355 6 7 20 28 26 18 14 14 14 13 17 21 24 21 17 19 2 357 3 357 351 346 343 336 332 331 330 324 320 316 311 312 314 318 319 317 314 318 318
223 221 222 226 224 216 208 211 225 300 324 333 346 4 11 9 4 2 358 357 357 3 350 345 339 338 332 333 334 334 339 338 337 335 330 334 341 329 322 317 313 312 306 309 313 314 307 312 309
224 224 224 226 228 223 216 223 228 261 295 307 319 343 351 359 4 359 348 342 345 347 340 329 324 320 315 322 325 320 327 328 324 324 326 329 330 321 311 313 313 313 304 305 310 309 305 305 294
224 225 227 228 227 227 225 235 241 253 277 289 303 318 320 324 341 346 339 327 333 338 336 331 319 311 309 303 310 308 307 311 309 311 307 307 313 314 310 310 313 312 305 303 308 308 304 300 293
225 226 225 228 229 230 230 237 239 250 257 267 280 295 304 299 299 319 329 311 318 322 320 328 326 314 312 306 305 314 308 304 303 301 296 293 300 304 304 304 309 309 306 301 300 303 303 297 288
224 225 226 226 230 233 236 240 242 250 261 267 273 281 295 301 304 308 314 307 306 311 317 319 318 327 324 318 315 314 310 307 304 300 295 289 294 297 298 299 301 304 303 296 290 299 300 297 290
225 227 227 228 233 238 241 244 240 247 260 270 276 279 293 299 294 292 294 302 302 307 314 315 310 319 323 317 312 311 307 306 307 304 304 301 298 294 294 295 293 295 299 292 289 294 292 290 287
224 225 227 229 235 239 242 245 243 247 260 269 277 282 291 301 297 292 287 292 296 296 305 309 307 308 306 304 306 307 308 310 314 311 310 308 302 299 295 293 290 294 297 294 290 292 289 288 288
224 226 227 230 235 240 243 245 247 252 256 265 272 280 288 295 302 289 287 288 286 292 298 300 300 301 297 291 296 303 307 309 308 310 309 312 309 304 300 295 290 290 290 291 289 290 289 287 287
226 228 231 235 239 243 247 248 251 253 257 267 276 281 281 285 299 300 291 285 282 287 295 297 296 296 293 291 297 299 308 306 307 307 305 304 304 303 301 298 294 290 285 286 286 290 290 288 286
226 228 230 234 239 243 247 250 252 254 257 267 275 281 281 280 290 294 290 284 281 279 281 288 294 295 294 293 297 300 303 305 303 300 299 300 303 301 302 298 294 291 283 282 282 284 288 290 287
225 228 230 234 240 244 247 250 255 254 259 264 270 274 275 280 288 293 292 287 282 278 279 282 288 291 293 295 293 296 300 301 299 295 294 296 297 296 295 294 293 291 286 280 280 283 288 289 288
226 228 232 236 240 245 250 251 253 256 259 261 263 266 272 277 285 289 291 289 280 277 275 281 285 286 289 291 292 294 297 298 296 294 291 292 292 292 292 288 290 291 284 280 280 283 286 288 290
229 231 234 238 242 246 251 253 254 257 259 261 261 262 267 275 278 284 293 290 283 279 282 284 284 281 283 287 290 292 294 297 295 292 292 292 291 292 293 287 286 284 281 280 281 282 285 287 288
Height
5892 5892 5892 5892 5892 5890 5888 5888 5887 5886 5887 5886 5886 5886 5886 5886 5888 5890 5888 5887 5888 5888 5888 5888 5888 5888 5888 5888 5889 5889 5889 5889 5890 5890 5890 5890 5890 5890 5890 5890 5890 5890 5890 5890 5890 5889 5889 5889 5889
5894 5894 5895 5895 5893 5891 5891 5889 5888 5889 5889 5888 5888 5888 5888 5888 5888 5889 5888 5889 5889 5889 5889 5889 5889 5890 5890 5890 5891 5891 5891 5891 5891 5891 5891 5891 5891 5891 5891 5891 5891 5891 5891 5891 5890 5890 5890 5890 5890
5896 5896 5897 5896 5894 5893 5893 5891 5890 5890 5890 5890 5890 5890 5890 5890 5890 5890 5890 5891 5891 5891 5891 5891 5891 5891 5892 5892 5892 5892 5892 5893 5893 5893 5893 5893 5893 5892 5892 5892 5892 5892 5892 5892 5891 5891 5891 5891 5891
5897 5898 5899 5898 5896 5896 5894 5893 5892 5892 5892 5892 5892 5892 5892 5892 5892 5892 5892 5893 5893 5893 5892 5892 5893 5893 5893 5893 5894 5894 5894 5894 5894 5894 5894 5894 5894 5893 5893 5893 5893 5893 5892 5892 5892 5892 5892 5892 5892
5899 5899 5900 5899 5898 5897 5896 5895 5894 5894 5894 5893 5894 5893 5893 5894 5894 5894 5894 5894 5895 5894 5894 5894 5894 5894 5894 5895 5895 5895 5895 5895 5895 5895 5895 5895 5895 5895 5894 5894 5894 5893 5893 5893 5893 5893 5893 5892 5892
5900 5900 5901 5900 5900 5899 5898 5897 5896 5896 5896 5895 5895 5895 5895 5895 5895 5895 5896 5896 5896 5896 5895 5895 5895 5895 5895 5896 5896 5896 5896 5896 5896 5897 5897 5896 5896 5895 5895 5895 5895 5894 5894 5894 5894 5894 5893 5893 5893
5901 5901 5901 5901 5901 5900 5900 5899 5898 5898 5898 5898 5897 5897 5897 5897 5897 5897 5897 5897 5897 5897 5897 5897 5897 5897 5897 5897 5897 5897 5897 5897 5897 5897 5897 5897 5897 5896 5896 5896 5896 5896 5895 5895 5894 5894 5894 5894 5893
5902 5903 5902 5902 5902 5902 5901 5900 5900 5900 5900 5900 5900 5899 5899 5899 5899 5898 5898 5898 5898 5898 5898 5898 5898 5898 5898 5898 5898 5898 5898 5898 5898 5898 5898 5898 5898 5897 5897 5897 5897 5897 5896 5896 5895 5895 5895 5894 5894
5902 5904 5902 5903 5903 5903 5902 5902 5902 5902 5902 5902 5901 5901 5900 5900 5900 5899 5899 5899 5899 5899 5899 5900 5900 5899 5899 5899 5899 5899 5899 5899 5899 5899 5899 5899 5899 5898 5898 5898 5898 5897 5897 5896 5896 5895 5895 5895 5894
5903 5903 5903 5904 5904 5904 5903 5903 5903 5903 5903 5903 5903 5902 5901 5901 5901 5901 5901 5900 5900 5900 5900 5900 5900 5900 5900 5900 5900 5900 5900 5900 5900 5900 5900 5899 5899 5899 5899 5898 5898 5898 5898 5897 5896 5896 5895 5895 5895
5902 5903 5904 5904 5904 5904 5904 5904 5905 5905 5905 5905 5904 5904 5903 5902 5902 5902 5901 5901 5901 5901 5901 5901 5901 5901 5901 5901 5901 5901 5901 5901 5900 5900 5900 5900 5900 5899 5899 5899 5898 5898 5898 5897 5897 5896 5896 5895 5895
5902 5903 5904 5905 5905 5905 5905 5906 5906 5906 5906 5906 5906 5905 5904 5904 5903 5903 5902 5902 5902 5902 5902 5902 5902 5902 5902 5902 5901 5901 5901 5901 5901 5901 5900 5900 5900 5900 5899 5899 5899 5898 5898 5897 5897 5896 5896 5895 5895
5903 5903 5904 5905 5906 5906 5906 5906 5907 5907 5907 5907 5907 5906 5906 5905 5904 5904 5903 5903 5903 5903 5903 5903 5903 5902 5902 5902 5902 5902 5902 5902 5902 5901 5901 5900 5900 5900 5900 5899 5899 5898 5898 5897 5897 5896 5896 5895 5895
5902 5903 5904 5905 5905 5906 5906 5907 5908 5908 5908 5908 5908 5908 5907 5906 5905 5905 5904 5904 5903 5903 5903 5903 5903 5903 5903 5903 5903 5903 5902 5902 5902 5901 5901 5901 5900 5900 5900 5899 5899 5898 5897 5897 5897 5896 5896 5895 5895
5902 5903 5904 5905 5905 5906 5907 5908 5908 5909 5909 5909 5909 5908 5908 5907 5906 5906 5905 5905 5904 5904 5904 5904 5904 5904 5904 5903 5903 5903 5903 5902 5902 5901 5901 5901 5900 5900 5899 5899 5898 5898 5897 5897 5896 5896 5895 5895 5894
5901 5902 5903 5905 5905 5906 5909 5908 5909 5909 5910 5910 5909 5909 5909 5908 5907 5907 5906 5906 5906 5905 5905 5905 5905 5905 5904 5904 5903 5903 5903 5902 5902 5901 5901 5900 5900 5899 5899 5898 5898 5897 5897 5896 5896 5895 5895 5894 5894
5900 5901 5902 5904 5905 5906 5907 5908 5909 5909 5910 5910 5910 5910 5909 5909 5908 5907 5907 5907 5906 5906 5906 5906 5906 5905 5905 5904 5904 5903 5902 5902 5902 5901 5900 5899 5899 5899 5898 5898 5897 5897 5896 5895 5895 5895 5894 5893 5893
5899 5900 5902 5903 5904 5906 5907 5908 5909 5909 5910 5910 5910 5910 5909 5909 5908 5908 5907 5907 5907 5906 5906 5906 5906 5905 5905 5904 5904 5903 5902 5902 5901 5900 5900 5899 5899 5898 5897 5897 5896 5895 5895 5895 5894 5893 5893 5892 5891
5896 5898 5900 5902 5903 5905 5906 5907 5908 5909 5909 5910 5910 5909 5909 5908 5908 5908 5907 5907 5906 5906 5906 5905 5905 5905 5904 5903 5903 5902 5901 5901 5901 5900 5899 5899 5898 5898 5897 5896 5895 5894 5894 5894 5893 5892 5891 5890 5890
5894 5896 5899 5901 5902 5903 5905 5906 5907 5908 5909 5909 5909 5909 5908 5908 5908 5908 5907 5907 5906 5906 5905 5904 5903 5903 5903 5902 5902 5901 5901 5900 5900 5899 5899 5898 5897 5897 5896 5895 5894 5894 5893 5892 5892 5891 5890 5889 5889
5892 5895 5897 5898 5900 5902 5904 5905 5906 5907 5907 5908 5909 5908 5908 5907 5906 5907 5906 5906 5906 5905 5905 5904 5902 5902 5902 5901 5901 5901 5900 5899 5899 5898 5897 5897 5896 5895 5895 5894 5894 5893 5892 5891 5891 5890 5890 5889 5888
5889 5892 5894 5896 5898 5900 5902 5904 5905 5906 5906 5907 5907 5907 5907 5906 5905 5905 5905 5905 5905 5904 5903 5903 5902 5901 5901 5900 5900 5899 5899 5898 5897 5897 5896 5895 5895 5894 5894 5893 5892 5892 5891 5890 5889 5889 5888 5888 5887
5886 5889 5891 5893 5895 5898 5900 5902 5905 5904 5905 5906 5906 5906 5906 5905 5904 5904 5904 5903 5903 5903 5902 5901 5901 5900 5899 5900 5899 5898 5898 5897 5896 5895 5894 5893 5893 5892 5892 5891 5891 5890 5889 5889 5888 5887 5887 5887 5886
5883 5886 5888 5890 5892 5895 5898 5900 5902 5903 5904 5905 5905 5905 5904 5904 5903 5902 5902 5902 5902 5902 5901 5900 5899 5899 5898 5898 5898 5897 5896 5895 5894 5894 5893 5892 5891 5891 5890 5889 5889 5888 5888 5887 5887 5886 5885 5885 5885
5879 5883 5885 5887 5889 5892 5895 5896 5900 5901 5902 5903 5903 5903 5902 5902 5901 5901 5901 5901 5901 5900 5900 5899 5898 5897 5897 5896 5896 5895 5894 5893 5892 5892 5891 5891 5890 5889 5888 5888 5887 5886 5886 5885 5885 5884 5884 5883 5883
5875 5879 5883 5885 5887 5890 5892 5893 5897 5898 5899 5900 5900 5900 5900 5900 5900 5899 5899 5899 5899 5898 5898 5897 5896 5896 5896 5895 5894 5894 5893 5892 5891 5890 5889 5889 5888 5887 5886 5886 5885 5884 5883 5883 5883 5882 5882 5881 5880
5871 5875 5879 5881 5883 5886 5888 5891 5894 5895 5896 5897 5897 5898 5898 5898 5898 5898 5897 5896 5896 5895 5895 5895 5894 5894 5894 5893 5893 5892 5891 5890 5889 5888 5887 5887 5886 5885 5884 5883 5882 5882 5881 5881 5881 5880 5879 5879 5878
5868 5871 5874 5877 5879 5881 5885 5887 5890 5892 5893 5894 5895 5895 5895 5896 5896 5896 5895 5894 5893 5893 5893 5893 5893 5892 5891 5891 5890 5890 5889 5888 5887 5885 5885 5884 5883 5882 5882 5881 5880 5879 5879 5878 5878 5877 5877 5876 5875
5863 5867 5870 5873 5875 5878 5881 5886 5887 5889 5890 5891 5892 5892 5893 5893 5894 5894 5893 5891 5891 5891 5891 5891 5890 5890 5889 5889 5888 5887 5887 5885 5883 5882 5882 5881 5881 5880 5879 5878 5878 5877 5876 5875 5875 5875 5874 5873 5873
5859 5862 5866 5869 5871 5874 5877 5884 5883 5885 5886 5887 5888 5889 5890 5890 5891 5890 5890 5888 5887 5888 5887 5887 5887 5887 5887 5886 5886 5885 5884 5883 5882 5881 5880 5879 5878 5877 5876 5875 5875 5874 5873 5872 5872 5872 5871 5870 5869